N4LLZ-13 Weather Reports


time (UTC)temp
C
wind
direction
speed
KPH
gust
KPH
rain 1hr
cm
rain 24hr
cm
rain mn
cm
humidity
%
barometer
mb
20260510190953 29 338 0.0 1.6 0.00 0.00 0.00 41 1014.5
20260510190452 29 141 1.6 1.6 0.00 0.00 0.00 41 1014.5
20260510185952 28 166 0.0 1.6 0.00 0.00 0.00 44 1014.5
20260510185451 28 0 0.0 0.0 0.00 0.00 0.00 44 1014.6
20260510184950 27 295 1.6 3.2 0.00 0.00 0.00 46 1014.8
20260510184449 28 292 1.6 1.6 0.00 0.00 0.00 46 1014.8
20260510183948 28 347 0.0 1.6 0.00 0.00 0.00 45 1014.8
20260510183447 29 267 1.6 1.6 0.00 0.00 0.00 43 1014.9
20260510182947 29 302 1.6 3.2 0.00 0.00 0.00 43 1014.9
20260510182446 29 211 1.6 3.2 0.00 0.00 0.00 44 1014.9
20260510181945 29 175 1.6 3.2 0.00 0.00 0.00 44 1014.9
20260510181444 29 182 1.6 3.2 0.00 0.00 0.00 45 1015.0
20260510180943 28 211 1.6 3.2 0.00 0.00 0.00 44 1014.9
20260510180443 29 189 1.6 3.2 0.00 0.00 0.00 43 1015.0
20260510175942 28 124 1.6 1.6 0.00 0.00 0.00 44 1015.0
20260510175441 28 25 1.6 3.2 0.00 0.00 0.00 45 1015.1
20260510174940 28 126 1.6 3.2 0.00 0.00 0.00 43 1015.0
20260510174439 28 39 1.6 3.2 0.00 0.00 0.00 47 1015.0
20260510173938 28 203 1.6 3.2 0.00 0.00 0.00 44 1015.0
20260510173438 27 307 1.6 1.6 0.00 0.00 0.00 46 1015.1
20260510172937 28 326 1.6 1.6 0.00 0.00 0.00 45 1015.1
20260510172436 28 246 1.6 3.2 0.00 0.00 0.00 44 1015.1
20260510171935 28 71 0.0 1.6 0.00 0.00 0.00 44 1015.1
20260510171434 28 59 1.6 3.2 0.00 0.00 0.00 44 1015.1
20260510170933 28 356 1.6 3.2 0.00 0.00 0.00 44 1015.2
20260510170433 27 301 1.6 3.2 0.00 0.00 0.00 45 1015.2
20260510165932 27 293 1.6 1.6 0.00 0.00 0.00 44 1015.2
20260510165431 27 160 1.6 1.6 0.00 0.00 0.00 45 1015.2
20260510164930 27 257 1.6 3.2 0.00 0.00 0.00 45 1015.2
20260510164429 27 158 1.6 3.2 0.00 0.00 0.00 44 1015.2
20260510163929 27 319 3.2 3.2 0.00 0.00 0.00 44 1015.3
20260510163428 27 152 0.0 1.6 0.00 0.00 0.00 46 1015.3
20260510162927 27 312 1.6 3.2 0.00 0.00 0.00 47 1015.4
20260510162426 27 296 0.0 1.6 0.00 0.00 0.00 49 1015.4
20260510161925 27 128 1.6 3.2 0.00 0.00 0.00 46 1015.5
20260510161424 27 179 0.0 1.6 0.00 0.00 0.00 48 1015.5
20260510160924 27 241 0.0 1.6 0.00 0.00 0.00 47 1015.5
20260510160423 27 87 1.6 3.2 0.00 0.00 0.00 46 1015.5
20260510155922 27 64 1.6 1.6 0.00 0.00 0.00 47 1015.7
20260510155421 26 62 1.6 3.2 0.00 0.00 0.00 49 1015.7
20260510154920 26 81 0.0 1.6 0.00 0.00 0.00 49 1015.8
20260510154420 26 350 1.6 3.2 0.00 0.00 0.00 47 1015.9
20260510153919 26 51 1.6 3.2 0.00 0.00 0.00 50 1015.9
20260510153418 26 35 1.6 3.2 0.00 0.00 0.00 51 1015.9
20260510152917 26 108 1.6 3.2 0.00 0.00 0.00 52 1015.8
20260510152416 26 359 1.6 1.6 0.00 0.00 0.00 54 1015.8
20260510151915 26 100 3.2 3.2 0.00 0.00 0.00 53 1015.7
20260510151414 26 89 1.6 3.2 0.00 0.00 0.00 54 1015.7
20260510150914 26 4 0.0 1.6 0.00 0.00 0.00 52 1015.7
20260510150413 25 20 1.6 3.2 0.00 0.00 0.00 53 1015.7
20260510145912 25 92 1.6 3.2 0.00 0.00 0.00 55 1015.7
20260510145411 25 300 0.0 1.6 0.00 0.00 0.00 53 1015.8
20260510144910 25 316 0.0 1.6 0.00 0.00 0.00 60 1015.8
20260510144410 25 272 1.6 1.6 0.00 0.00 0.00 60 1015.8
20260510143909 25 61 1.6 1.6 0.00 0.00 0.00 62 1015.7
20260510143408 25 107 3.2 4.8 0.00 0.00 0.00 61 1015.7
20260510142907 25 101 1.6 3.2 0.00 0.00 0.00 57 1015.7
20260510142406 25 67 1.6 1.6 0.00 0.00 0.00 60 1015.7
20260510141905 24 28 0.0 1.6 0.00 0.00 0.00 61 1015.7
20260510141404 24 68 1.6 1.6 0.00 0.00 0.00 62 1015.7
20260510140904 23 319 0.0 1.6 0.00 0.00 0.00 66 1015.7
20260510140403 23 264 1.6 1.6 0.00 0.00 0.00 66 1015.7
20260510135902 23 7 0.0 1.6 0.00 0.00 0.00 71 1015.8
20260510135401 23 339 1.6 1.6 0.00 0.00 0.00 70 1015.7
20260510134900 23 69 0.0 1.6 0.00 0.00 0.00 72 1015.7
20260510134359 23 107 1.6 1.6 0.00 0.00 0.00 72 1015.7
20260510133859 22 335 1.6 1.6 0.00 0.00 0.00 75 1015.7
20260510133358 23 267 1.6 1.6 0.00 0.00 0.00 73 1015.6
20260510132857 22 312 0.0 1.6 0.00 0.00 0.00 73 1015.6
20260510132356 22 286 1.6 1.6 0.00 0.00 0.00 74 1015.6
20260510131855 22 64 0.0 1.6 0.00 0.00 0.00 76 1015.5
20260510131354 22 292 1.6 1.6 0.00 0.00 0.00 78 1015.5
20260510130854 21 197 0.0 0.0 0.00 0.00 0.00 79 1015.4
20260510130353 21 317 0.0 1.6 0.00 0.00 0.00 83 1015.3
20260510125852 21 236 0.0 1.6 0.00 0.00 0.00 85 1015.3
20260510125351 20 302 1.6 1.6 0.00 0.00 0.00 85 1015.3
20260510124850 20 178 0.0 1.6 0.00 0.00 0.00 85 1015.3
20260510124349 20 271 1.6 1.6 0.00 0.00 0.00 87 1015.3
20260510123848 20 171 1.6 1.6 0.00 0.00 0.00 88 1015.3
20260510123348 20 292 0.0 1.6 0.00 0.00 0.00 89 1015.2
20260510122847 20 347 0.0 1.6 0.00 0.00 0.00 89 1015.1
20260510122347 19 207 0.0 1.6 0.00 0.00 0.00 90 1015.1
20260510121846 19 274 1.6 1.6 0.00 0.00 0.00 90 1015.1
20260510121345 18 310 1.6 1.6 0.00 0.00 0.00 92 1015.0
20260510120844 18 223 1.6 1.6 0.00 0.00 0.00 92 1015.0
20260510120343 18 201 1.6 1.6 0.00 0.00 0.00 93 1015.0
20260510115843 18 254 0.0 1.6 0.00 0.00 0.00 95 1015.0
20260510115342 17 285 1.6 1.6 0.00 0.00 0.00 96 1014.9
20260510114841 17 299 1.6 1.6 0.00 0.00 0.00 97 1014.9
20260510114340 17 270 1.6 1.6 0.00 0.00 0.00 99 1014.8
20260510113839 16 201 0.0 0.0 0.00 0.00 0.00 99 1014.7
20260510113339 16 323 0.0 0.0 0.00 0.00 0.00 99 1014.6
20260510112838 16 344 0.0 0.0 0.00 0.00 0.00 99 1014.5
20260510112337 16 1 0.0 1.6 0.00 0.00 0.00 99 1014.4
20260510111836 16 48 0.0 0.0 0.00 0.00 0.00 99 1014.4
20260510111335 16 337 0.0 0.0 0.00 0.00 0.00 99 1014.4
20260510110834 16 0 0.0 0.0 0.00 0.00 0.00 99 1014.3
20260510110334 16 0 0.0 0.0 0.00 0.00 0.00 99 1014.2
20260510105833 16 0 0.0 0.0 0.00 0.00 0.00 99 1014.1
20260510105332 16 0 0.0 0.0 0.00 0.00 0.00 99 1014.0
20260510104831 16 357 0.0 0.0 0.00 0.00 0.00 99 1013.9
20260510104330 16 334 0.0 1.6 0.00 0.00 0.00 99 1013.9
20260510103829 16 353 0.0 1.6 0.00 0.00 0.00 99 1013.9
20260510103329 16 289 0.0 0.0 0.00 0.00 0.00 99 1013.8
20260510102828 16 276 0.0 1.6 0.00 0.00 0.00 99 1013.7
20260510102327 16 295 1.6 1.6 0.00 0.00 0.00 99 1013.6
20260510101826 16 304 0.0 1.6 0.00 0.00 0.00 99 1013.5
20260510101325 16 299 0.0 0.0 0.00 0.00 0.00 99 1013.4
20260510100824 16 325 0.0 1.6 0.00 0.00 0.00 99 1013.4
20260510100324 16 337 0.0 1.6 0.00 0.00 0.00 99 1013.4
20260510095823 16 226 0.0 0.0 0.00 0.00 0.00 99 1013.3
20260510095322 16 307 1.6 1.6 0.00 0.00 0.00 99 1013.3
20260510094821 16 280 0.0 0.0 0.00 0.00 0.00 99 1013.2
20260510094320 16 261 0.0 0.0 0.00 0.00 0.00 99 1013.1
20260510093820 16 0 0.0 0.0 0.00 0.00 0.00 99 1013.1
20260510093319 16 336 0.0 0.0 0.00 0.00 0.00 99 1013.0
20260510092818 15 0 0.0 0.0 0.00 0.00 0.00 99 1013.0
20260510092317 15 0 0.0 0.0 0.00 0.00 0.00 99 1012.8
20260510091817 16 332 0.0 0.0 0.00 0.00 0.00 99 1012.7
20260510090314 16 293 0.0 0.0 0.00 0.00 0.00 99 1012.6
20260510085813 16 0 0.0 0.0 0.00 0.00 0.00 99 1012.6
20260510085313 16 281 0.0 0.0 0.00 0.00 0.00 99 1012.6
20260510084812 16 3 0.0 0.0 0.00 0.00 0.00 99 1012.5
20260510084311 16 356 0.0 1.6 0.00 0.00 0.00 99 1012.5
20260510083810 16 341 0.0 0.0 0.00 0.00 0.00 99 1012.6
20260510083309 16 316 0.0 0.0 0.00 0.00 0.00 99 1012.6
20260510082809 15 0 0.0 0.0 0.00 0.00 0.00 99 1012.6
20260510082308 15 0 0.0 0.0 0.00 0.00 0.00 99 1012.5
20260510081807 15 334 0.0 0.0 0.00 0.00 0.00 99 1012.4
20260510081306 15 227 0.0 0.0 0.00 0.00 0.00 99 1012.4
20260510080805 16 240 0.0 0.0 0.00 0.00 0.00 99 1012.4
20260510080304 16 1 0.0 0.0 0.00 0.00 0.00 99 1012.4
20260510075804 16 233 0.0 0.0 0.00 0.00 0.00 99 1012.4
20260510075306 16 346 0.0 0.0 0.00 0.00 0.00 99 1012.4
20260510074802 16 0 0.0 0.0 0.00 0.00 0.00 99 1012.3
20260510074302 16 340 0.0 0.0 0.00 0.00 0.00 99 1012.3
20260510073801 16 0 0.0 0.0 0.00 0.00 0.00 99 1012.3
20260510073300 16 282 0.0 0.0 0.00 0.00 0.00 99 1012.3
20260510072759 16 275 0.0 0.0 0.00 0.00 0.00 99 1012.2
20260510072258 15 1 0.0 0.0 0.00 0.00 0.00 99 1012.2
20260510071758 15 347 0.0 0.0 0.00 0.00 0.00 99 1012.2
20260510071257 15 309 0.0 0.0 0.00 0.00 0.00 99 1012.2
20260510070756 16 0 0.0 0.0 0.00 0.00 0.00 99 1012.3
20260510070255 16 0 0.0 0.0 0.00 0.00 0.00 99 1012.3
20260510065754 16 0 0.0 0.0 0.00 0.00 0.00 99 1012.3
20260510065253 16 248 0.0 0.0 0.00 0.00 0.00 99 1012.3
20260510064753 16 305 0.0 1.6 0.00 0.00 0.00 99 1012.3
20260510064252 16 0 0.0 0.0 0.00 0.00 0.00 99 1012.3
20260510063752 16 304 0.0 0.0 0.00 0.00 0.00 99 1012.2
20260510063251 16 0 0.0 0.0 0.00 0.00 0.00 99 1012.2
20260510062751 16 346 0.0 1.6 0.00 0.00 0.00 99 1012.2
20260510062250 16 324 0.0 0.0 0.00 0.00 0.00 99 1012.1
20260510061749 16 233 0.0 0.0 0.00 0.00 0.00 99 1012.2
20260510061248 16 293 0.0 0.0 0.00 0.00 0.00 100 1012.2
20260510060747 16 0 0.0 0.0 0.00 0.00 0.00 99 1012.3
20260510060246 16 342 0.0 1.6 0.00 0.00 0.00 100 1012.3
20260510055746 16 327 0.0 1.6 0.00 0.00 0.00 99 1012.4
20260510055245 16 193 0.0 1.6 0.00 0.00 0.00 99 1012.4
20260510054744 16 297 0.0 0.0 0.00 0.00 0.00 99 1012.4
20260510054243 16 336 0.0 1.6 0.00 0.00 0.00 99 1012.4
20260510053742 16 0 0.0 0.0 0.00 0.00 0.00 99 1012.5
20260510053242 16 333 0.0 0.0 0.00 0.00 0.00 99 1012.6
20260510052741 16 121 0.0 0.0 0.00 0.00 0.00 99 1012.6
20260510052240 16 329 0.0 1.6 0.00 0.00 0.00 99 1012.8
20260510051739 16 283 0.0 1.6 0.00 0.00 0.00 99 1012.8
20260510051238 16 0 0.0 0.0 0.00 0.00 0.00 99 1012.7
20260510050737 16 239 0.0 0.0 0.00 0.00 0.00 99 1012.7
20260510050237 16 0 0.0 0.0 0.00 0.00 0.00 99 1012.7
20260510045736 16 0 0.0 0.0 0.00 0.00 0.00 99 1012.8
20260510045235 16 0 0.0 0.0 0.00 0.00 0.00 99 1012.9
20260510044734 16 244 0.0 0.0 0.00 0.00 0.00 99 1012.9
20260510044233 16 232 0.0 1.6 0.00 0.00 0.00 99 1012.8
20260510043733 16 266 0.0 0.0 0.00 0.00 0.00 99 1012.9
20260510043232 16 338 0.0 1.6 0.00 0.00 0.00 99 1012.8
20260510042731 16 226 0.0 0.0 0.00 0.00 0.00 99 1012.7
20260510042230 16 234 0.0 0.0 0.00 0.00 0.00 99 1012.8
20260510041729 16 262 0.0 0.0 0.00 0.00 0.00 99 1012.7
20260510041228 16 0 0.0 0.0 0.00 0.00 0.00 99 1012.8
20260510040728 16 297 0.0 0.0 0.00 0.00 0.00 99 1012.8
20260510040227 16 193 0.0 0.0 0.00 0.00 0.00 99 1012.7
20260510035726 17 346 0.0 0.0 0.00 0.00 0.00 99 1012.6
20260510035225 17 260 0.0 0.0 0.00 0.00 0.00 100 1012.5
20260510034724 16 309 0.0 0.0 0.00 0.00 0.00 100 1012.6
20260510034223 16 332 0.0 0.0 0.00 0.00 0.00 99 1012.6
20260510033723 17 218 0.0 0.0 0.00 0.00 0.00 99 1012.5
20260510033222 17 0 0.0 0.0 0.00 0.00 0.00 99 1012.5
20260510032721 17 276 0.0 0.0 0.00 0.00 0.00 99 1012.5
20260510032220 17 262 0.0 0.0 0.00 0.00 0.00 99 1012.4
20260510031719 17 323 0.0 1.6 0.00 0.00 0.00 99 1012.4
20260510031218 17 287 0.0 0.0 0.00 0.00 0.00 99 1012.4
20260510030718 17 293 0.0 0.0 0.00 0.00 0.00 99 1012.4
20260510030217 17 285 0.0 1.6 0.00 0.00 0.00 99 1012.3
20260510025716 17 293 0.0 1.6 0.00 0.00 0.00 99 1012.3
20260510025215 17 296 0.0 1.6 0.00 0.00 0.00 99 1012.3
20260510024714 17 261 0.0 0.0 0.00 0.00 0.00 98 1012.3
20260510024214 17 250 0.0 1.6 0.00 0.00 0.00 98 1012.2
20260510023713 17 273 0.0 0.0 0.00 0.00 0.00 98 1012.2
20260510023212 17 286 0.0 0.0 0.00 0.00 0.00 98 1012.3
20260510022711 17 322 0.0 0.0 0.00 0.00 0.00 98 1012.3
20260510022210 17 272 0.0 1.6 0.00 0.00 0.00 98 1012.2
20260510021709 17 252 0.0 1.6 0.00 0.00 0.00 97 1012.2
20260510021209 17 0 0.0 0.0 0.00 0.00 0.00 97 1012.1
20260510020708 17 274 0.0 0.0 0.00 0.00 0.00 97 1012.0
20260510020208 17 248 0.0 1.6 0.00 0.00 0.00 97 1012.3
20260510015707 17 281 0.0 0.0 0.00 0.00 0.00 96 1012.3
20260510015207 17 282 0.0 0.0 0.00 0.00 0.00 96 1012.1
20260510014706 17 244 0.0 0.0 0.00 0.00 0.00 96 1012.0
20260510014205 17 254 0.0 0.0 0.00 0.00 0.00 95 1011.9
20260510013704 17 357 0.0 0.0 0.00 0.00 0.00 95 1011.7
20260510013204 18 299 0.0 0.0 0.00 0.00 0.00 94 1011.7
20260510012703 18 0 0.0 0.0 0.00 0.00 0.00 94 1011.7
20260510012202 18 0 0.0 0.0 0.00 0.00 0.00 94 1011.6
20260510011701 18 272 0.0 0.0 0.00 0.00 0.00 94 1011.5
20260510011200 18 228 0.0 0.0 0.00 0.00 0.00 93 1011.5
20260510010700 18 185 0.0 0.0 0.00 0.00 0.00 93 1011.5
20260510010159 18 0 0.0 0.0 0.00 0.00 0.00 92 1011.5
20260510005658 18 0 0.0 0.0 0.00 0.00 0.00 92 1011.5
20260510005157 18 0 0.0 0.0 0.00 0.00 0.00 91 1011.3
20260510004656 18 0 0.0 0.0 0.00 0.00 0.00 90 1011.3
20260510004155 19 273 0.0 0.0 0.00 0.00 0.00 90 1011.2
20260510003654 19 0 0.0 0.0 0.00 0.00 0.00 90 1011.2
20260510003153 19 200 0.0 0.0 0.00 0.00 0.00 89 1011.2
20260510002653 20 0 0.0 0.0 0.00 0.00 0.00 88 1011.3
20260510002152 20 331 0.0 0.0 0.00 0.00 0.00 87 1011.3
20260510001651 20 0 0.0 0.0 0.00 0.00 0.00 86 1011.3
20260510001150 20 0 0.0 0.0 0.00 0.00 0.00 85 1011.3
20260510000649 20 287 0.0 0.0 0.00 0.00 0.00 85 1011.3
20260510000149 20 273 0.0 0.0 0.00 0.00 0.00 84 1011.2
20260509235648 21 287 0.0 0.0 0.00 0.00 0.00 83 1011.2
20260509235147 21 0 0.0 0.0 0.00 0.00 0.00 82 1011.1
20260509234646 21 0 0.0 0.0 0.00 0.00 0.00 82 1011.0
20260509234145 21 0 0.0 0.0 0.00 0.00 0.00 80 1010.9
20260509233644 21 196 0.0 0.0 0.00 0.00 0.00 79 1010.8
20260509233144 21 0 0.0 0.0 0.00 0.00 0.00 78 1010.6
20260509232643 22 286 0.0 0.0 0.00 0.00 0.00 78 1010.7
20260509232142 22 0 0.0 0.0 0.00 0.00 0.00 77 1010.8
20260509231641 22 131 0.0 0.0 0.00 0.00 0.00 76 1010.7
20260509231140 22 271 0.0 1.6 0.00 0.00 0.00 75 1010.5
20260509230640 22 35 0.0 1.6 0.00 0.00 0.00 76 1010.6
20260509230139 22 0 0.0 0.0 0.00 0.00 0.00 75 1010.6
20260509225638 22 279 0.0 1.6 0.00 0.00 0.00 74 1010.4
20260509225137 22 99 0.0 1.6 0.00 0.00 0.00 74 1010.3
20260509224636 22 256 1.6 1.6 0.00 0.00 0.00 73 1010.4
20260509224136 22 274 1.6 1.6 0.00 0.00 0.00 73 1010.4
20260509223636 23 266 0.0 1.6 0.00 0.00 0.00 73 1010.6
20260509223135 23 244 1.6 1.6 0.00 0.00 0.00 72 1010.6
20260509222634 22 282 1.6 1.6 0.00 0.00 0.00 73 1010.6
20260509222133 22 267 1.6 3.2 0.00 0.00 0.00 73 1010.7
20260509221633 23 270 1.6 4.8 0.00 0.00 0.00 72 1010.8
20260509221132 23 249 1.6 1.6 0.00 0.00 0.00 72 1010.7
20260509220631 22 289 1.6 1.6 0.00 0.00 0.00 72 1010.6
20260509220130 22 270 1.6 1.6 0.00 0.00 0.00 72 1010.5
20260509215629 22 269 1.6 1.6 0.00 0.00 0.00 72 1010.5
20260509215129 23 209 1.6 3.2 0.00 0.00 0.00 72 1010.5
20260509214628 23 217 1.6 3.2 0.00 0.00 0.00 71 1010.5
20260509214127 23 218 1.6 1.6 0.00 0.00 0.00 71 1010.4
20260509213626 22 315 0.0 1.6 0.00 0.00 0.00 71 1010.4
20260509213125 22 271 1.6 3.2 0.00 0.00 0.00 71 1010.5
20260509212625 22 204 1.6 3.2 0.00 0.00 0.00 72 1010.5
20260509212124 22 298 1.6 4.8 0.00 0.00 0.00 71 1010.4
20260509211623 23 266 1.6 3.2 0.00 0.00 0.00 71 1010.4
20260509211122 23 271 1.6 3.2 0.00 0.00 0.00 68 1010.4
20260509210621 23 281 3.2 4.8 0.00 0.00 0.00 67 1010.4
20260509210120 23 278 1.6 1.6 0.00 0.00 0.00 69 1010.3
20260509205620 23 302 1.6 3.2 0.00 0.00 0.00 70 1010.2
20260509205119 22 174 1.6 1.6 0.00 0.00 0.00 72 1010.2
20260509204618 22 271 1.6 3.2 0.00 0.00 0.00 73 1010.5
20260509204117 22 271 1.6 3.2 0.00 0.00 0.00 73 1010.4
20260509203616 22 268 1.6 1.6 0.00 0.00 0.00 71 1010.3
20260509203115 22 95 0.0 1.6 0.00 0.00 0.00 71 1010.3
20260509202615 22 94 0.0 1.6 0.00 0.00 0.00 72 1010.4
20260509202114 21 314 0.0 0.0 0.00 0.00 0.00 71 1010.4
20260509201613 21 235 0.0 1.6 0.00 0.00 0.00 71 1010.6
20260509201112 21 314 0.0 1.6 0.00 0.00 0.00 71 1010.5
20260509200612 21 227 0.0 1.6 0.00 0.00 0.00 71 1010.6
20260509200111 21 277 1.6 1.6 0.00 0.00 0.00 70 1010.7
20260509195610 21 239 0.0 1.6 0.00 0.00 0.00 71 1010.7
20260509195110 22 258 0.0 1.6 0.00 0.00 0.00 70 1010.7
20260509194609 22 277 1.6 1.6 0.00 0.00 0.00 69 1010.8
20260509194108 22 309 1.6 3.2 0.00 0.00 0.00 69 1010.8
20260509193607 22 295 1.6 3.2 0.00 0.00 0.00 68 1010.9
20260509193106 22 310 1.6 3.2 0.00 0.00 0.00 68 1010.9
20260509192605 22 270 1.6 3.2 0.00 0.00 0.00 67 1011.1
20260509192105 22 262 1.6 3.2 0.00 0.00 0.00 67 1011.1
20260509191604 22 255 1.6 1.6 0.00 0.00 0.00 67 1011.2